Location: Stanford
(52.2833°N, 2.4333°W)
Time: 20:05:52
(UTC+00:00)

Cosmos 1455 - Pass Details

Date: 22 January 2021
Orbit: 499 x 520 km, 82.5° (Epoch: 27 February)

Event Time Altitude Azimuth Distance (km) Brightness Sun altitude
Rises 18:20:23 0° 349° (N) 2,632 5.8 -15.1°
Reaches altitude 10° 18:22:31 10° 350° (N) 1,744 4.9 -15.5°
Maximum altitude 18:26:21 87° 74° (ENE) 522 2.1 -16.0°
Drops below altitude 10° 18:30:11 10° 170° (S) 1,742 4.9 -16.6°
Sets 18:32:18 0° 170° (S) 2,627 5.8 -16.9°
